STARLINK-5070 (55654 NORAD) Tracking and Keplerian Element Data

This shows tracking and keplerian element data for the satellite.

Feedback or suggestion? Click here.




ElementValue
Catalog55654
NameSTARLINK-5070
Epoch Orbit642
Epoch Day84.28039707
Epoch Year2023
RAAN50.1081
Inclination70.0045
Eccentricity0.000277
Argument of Perigee228.6655
Mean Anonmoly131.4303
Mean Motion15.69919601
Decay Rate6.205E-05
L11 55654U 23021AC 23084.28039707 .00006205 00000+0 53344-4 0 9991
L22 55654 70.0045 50.1081 0002770 228.6655 131.4303 15.69919601 6422



Live tracking and technical data element details for STARLINK-5070 (NORAD 55654). STARLINK-5070 can be tracked NOW for your location showing map with azimuth and elevation plus other details from your city location.







IsCatalogInMostPopularTable: catalog: 55654, numindb: 2
Update: records affected: 1



GetName: 55654 STARLINK-5070

Hit Count: updated at: Tue, 28 Mar 2023 03:20:05 GMT